Location: ???? ??
(36.0534°N, 43.5630°E)
Time: 13:31:38
(UTC+00:00)

Meteor 2-9 Rocket - Pass Details

Date: 18 September 2019
Orbit: 791 x 896 km, 81.3° (Epoch: 22 October)

Event Time Altitude Azimuth Distance (km) Brightness Sun altitude
Rises 15:37:00 0° 181° (S) 3,486 7.3 -6.4°
Reaches altitude 10° 15:39:28 10° 179° (S) 2,542 6.6 -6.9°
Maximum altitude 15:45:14 72° 96° (E) 922 4.2 -8.1°
Drops below altitude 10° 15:50:54 10° 13° (NNE) 2,501 6.6 -9.2°
Sets 15:53:18 0° 12° (NNE) 3,425 7.3 -9.7°
